Location: Sternwarte ZA, Rosenfeld-Brittheim
(48.2889°N, 8.6789°E)
Time: 02:25:28
(UTC+02:00)

ISS - Pass Details

Date: 23 May 2018
Orbit: 402 x 407 km, 51.6° (Epoch: 26 May)

Event Time Altitude Azimuth Distance (km) Brightness Sun altitude
Rises 02:11:49 0° 290° (WNW) 2,321 0.1 -20.3°
Reaches altitude 10° 02:13:55 10° 293° (WNW) 1,459 -0.9 -20.2°
Maximum altitude 02:17:10 62° 16° (NNE) 458 -3.4 -20.1°
Drops below altitude 10° 02:20:24 10° 98° (E) 1,455 -1.0 -19.9°
Sets 02:22:30 0° 102° (ESE) 2,313 0.1 -19.9°
